Tracking 30923 objects as of 1-Jul-2025
HD Live streaming from Space Station
objects crossing your sky now

FENGYUN 1C DEB

Track FENGYUN 1C DEB now!
10-day predictions


NORAD ID: 35147
Int'l Code: 1999-025DMB
Perigee: 651.9 km
Apogee: 693.1 km
Inclination: 99.5 °
Period: 98.0 minutes
Semi major axis: 7043 km
RCS: 0.0009 m2 (small)
Launch date: May 10, 1999
Source: People's Republic of China (PRC)
Launch site: Taiyaun Space Center, China (TSC)

Note: This is SATELLITE DEBRIS
Your satellite tracking list
Your tracking list is empty




NASA's NSSDC Master Catalog

Two Line Element Set (TLE):
1 35147U 99025DMB 25181.87337942  .00009641  00000-0  16558-2 0  9992
2 35147  99.4973 228.2050 0029199 347.1431  12.9022 14.68653252718818
Source of the keplerian elements: AFSPC